Location: Newark
(35.9031°N, 139.7175°E)
Time: 13:29:10
(UTC+00:00)

Transit 2A - Pass Details

Date: 01 June 2020
Orbit: 592 x 967 km, 66.7° (Epoch: 06 July)

Event Time Altitude Azimuth Distance (km) Brightness Sun altitude
Rises 13:30:03 0° 325° (NW) 3,599 10.6 -29.7°
Reaches altitude 10° 13:32:40 10° 319° (NW) 2,679 9.6 -29.8°
Enters shadow 13:38:21 44° 256° (WSW) 1,318 7.1 -30.2°
